Dades meteomassalio
Diari Summary for Octubre 3, 2017 Units:  Metric    English   Both
« Previous Day
Next Day »
Diari Semanal Mensual Anual Personalitzat
  Maxima: Minima: Mijana:
Temperatura: -17.8 °C -11.6 °C -8.1 °C
Rosada: -17.8 °C -13 °C -11.4 °C
Humitat: Humidity % 46 % 70 %
Velocitat del vent: 0 km/h 0 km/h 7.4 km/h
Racha vent: 0 km/h - -
Vent:- - WSW
Pressio: 0 hPa 34577.8 hPa -
Pluja: 0 mm    
Historical Graphs
 
 
Tabular Data for Octubre 3, 2017
Time Temperature Dew Point Pressure Wind Wind Speed Wind Gust Humidity Rainfall Rate (Hourly) solar Conditions
-17.8 °C -17.8 °C 0 hPa Calm     Humidity % 0 mm SolarRadiationWatts/m^2 W/m2 Conditions
00:01 -9.8 °C -12.1 °C 34693 hPa Calm     76 % 0 mm 0.0 W/m2 CLR
00:06 -10.1 °C -12.4 °C 34693 hPa Calm     76 % 0 mm 0.0 W/m2 CLR
00:11 -10.1 °C -12.4 °C 34693 hPa Calm     76 % 0 mm 0.0 W/m2 CLR
00:16 -10.1 °C -12.2 °C 34693 hPa Calm     78 % 0 mm 0.0 W/m2 CLR
00:21 -10.1 °C -12.3 °C 34682.8 hPa Calm     77 % 0 mm 0.0 W/m2 CLR
00:26 -10.1 °C -12.3 °C 34693 hPa Calm     77 % 0 mm 0.0 W/m2 CLR
00:31 -10.1 °C -12.2 °C 34682.8 hPa Calm     78 % 0 mm 0.0 W/m2 CLR
00:36 -10.1 °C -12.1 °C 34682.8 hPa Calm     79 % 0 mm 0.0 W/m2 CLR
00:41 -10.1 °C -12.2 °C 34682.8 hPa Calm     78 % 0 mm 0.0 W/m2 CLR
00:46 -10.1 °C -12.1 °C 34682.8 hPa Calm     79 % 0 mm 0.0 W/m2 CLR
00:51 -10.4 °C -12.3 °C 34682.8 hPa Calm     80 % 0 mm 0.0 W/m2 CLR
01:01 -10.4 °C -12.1 °C 34682.8 hPa Calm     81 % 0 mm 0.0 W/m2 CLR
01:06 -10.4 °C -12.1 °C 34682.8 hPa Calm     81 % 0 mm 0.0 W/m2 CLR
01:11 -10.4 °C -12.1 °C 34682.8 hPa Calm     81 % 0 mm 0.0 W/m2 CLR
01:16 -10.4 °C -12.1 °C 34682.8 hPa Calm     81 % 0 mm 0.0 W/m2 CLR
01:21 -10.4 °C -12.1 °C 34682.8 hPa Calm     82 % 0 mm 0.0 W/m2 CLR
01:26 -10.4 °C -12.1 °C 34682.8 hPa Calm     81 % 0 mm 0.0 W/m2 CLR
01:31 -10.4 °C -12.1 °C 34682.8 hPa Calm     81 % 0 mm 0.0 W/m2 CLR
01:36 -10.4 °C -12.1 °C 34669.3 hPa Calm     82 % 0 mm 0.0 W/m2 CLR
01:41 -10.7 °C -12.3 °C 34669.3 hPa Calm     82 % 0 mm 0.0 W/m2 CLR
01:46 -10.7 °C -12.3 °C 34669.3 hPa Calm     82 % 0 mm 0.0 W/m2 CLR
01:51 -10.7 °C -12.3 °C 34682.8 hPa Calm     82 % 0 mm 0.0 W/m2 CLR
01:56 -10.7 °C -12.1 °C 34669.3 hPa Calm     84 % 0 mm 0.0 W/m2 CLR
02:01 -10.7 °C -12.1 °C 34669.3 hPa Calm     84 % 0 mm 0.0 W/m2 CLR
02:06 -10.7 °C -12.1 °C 34669.3 hPa Calm     84 % 0 mm 0.0 W/m2 CLR
02:11 -10.7 °C -12.1 °C 34682.8 hPa Calm     84 % 0 mm 0.0 W/m2 CLR
02:16 -10.7 °C -12.1 °C 34682.8 hPa Calm     84 % 0 mm 0.0 W/m2 CLR
02:21 -10.7 °C -12.1 °C 34682.8 hPa Calm     84 % 0 mm 0.0 W/m2 CLR
02:26 -10.7 °C -12.1 °C 34682.8 hPa Calm     84 % 0 mm 0.0 W/m2 CLR
02:31 -10.7 °C -12.1 °C 34682.8 hPa Calm     85 % 0 mm 0.0 W/m2 CLR
02:36 -10.7 °C -12.1 °C 34669.3 hPa Calm     84 % 0 mm 0.0 W/m2 CLR
02:41 -10.7 °C -12.1 °C 34669.3 hPa Calm     85 % 0 mm 0.0 W/m2 CLR
02:46 -11 °C -12.4 °C 34682.8 hPa Calm     84 % 0 mm 0.0 W/m2 CLR
02:51 -11 °C -12.3 °C 34682.8 hPa Calm     85 % 0 mm 0.0 W/m2 CLR
02:56 -11 °C -12.3 °C 34682.8 hPa Calm     85 % 0 mm 0.0 W/m2 CLR
03:01 -11 °C -12.3 °C 34669.3 hPa Calm     85 % 0 mm 0.0 W/m2 CLR
03:06 -11 °C -12.3 °C 34682.8 hPa Calm     85 % 0 mm 0.0 W/m2 CLR
03:11 -11 °C -12.3 °C 34682.8 hPa Calm     85 % 0 mm 0.0 W/m2 CLR
03:16 -11 °C -12.3 °C 34669.3 hPa Calm     85 % 0 mm 0.0 W/m2 CLR
03:21 -11 °C -12.3 °C 34669.3 hPa Calm     86 % 0 mm 0.0 W/m2 CLR
03:26 -11 °C -12.3 °C 34669.3 hPa Calm     86 % 0 mm 0.0 W/m2 CLR
03:31 -11 °C -12.3 °C 34669.3 hPa Calm     86 % 0 mm 0.0 W/m2 CLR
03:36 -11.3 °C -12.6 °C 34669.3 hPa Calm     86 % 0 mm 0.0 W/m2 CLR
03:41 -11 °C -12.2 °C 34669.3 hPa Calm     87 % 0 mm 0.0 W/m2 CLR
03:46 -11.3 °C -12.6 °C 34669.3 hPa Calm     86 % 0 mm 0.0 W/m2 CLR
03:51 -11.3 °C -12.6 °C 34659.1 hPa Calm     86 % 0 mm 0.0 W/m2 CLR
03:56 -11.3 °C -12.6 °C 34659.1 hPa Calm     86 % 0 mm 0.0 W/m2 CLR
04:01 -11.3 °C -12.4 °C 34659.1 hPa Calm     87 % 0 mm 0.0 W/m2 CLR
04:06 -11.3 °C -12.4 °C 34659.1 hPa Calm     87 % 0 mm 0.0 W/m2 CLR
04:11 -11.3 °C -12.4 °C 34659.1 hPa Calm     87 % 0 mm 0.0 W/m2 CLR
04:16 -11.3 °C -12.4 °C 34659.1 hPa Calm     88 % 0 mm 0.0 W/m2 CLR
04:21 -11.3 °C -12.4 °C 34659.1 hPa Calm     88 % 0 mm 0.0 W/m2 CLR
04:26 -11.3 °C -12.4 °C 34659.1 hPa Calm     88 % 0 mm 0.0 W/m2 CLR
04:31 -11.3 °C -12.4 °C 34659.1 hPa Calm     88 % 0 mm 0.0 W/m2 CLR
04:36 -11.3 °C -12.4 °C 34659.1 hPa Calm     88 % 0 mm 0.0 W/m2 CLR
04:41 -11.3 °C -12.4 °C 34659.1 hPa Calm     87 % 0 mm 0.0 W/m2 CLR
04:46 -11.3 °C -12.4 °C 34659.1 hPa Calm     87 % 0 mm 0.0 W/m2 CLR
04:51 -11.3 °C -12.4 °C 34645.6 hPa Calm     88 % 0 mm 0.0 W/m2 CLR
04:56 -11.3 °C -12.4 °C 34659.1 hPa Calm     88 % 0 mm 0.0 W/m2 CLR
05:01 -11.3 °C -12.4 °C 34645.6 hPa Calm     87 % 0 mm 0.0 W/m2 CLR
05:06 -11.6 °C -12.7 °C 34659.1 hPa Calm     87 % 0 mm 0.0 W/m2 CLR
05:12 -11.6 °C -12.7 °C 34659.1 hPa Calm     88 % 0 mm 0.0 W/m2 CLR
05:20 -11.6 °C -12.7 °C 34659.1 hPa Calm     88 % 0 mm 0.0 W/m2 CLR
05:21 -11.6 °C -12.7 °C 34659.1 hPa Calm     88 % 0 mm 0.0 W/m2 CLR
05:22 -11.6 °C -12.7 °C 34659.1 hPa Calm     88 % 0 mm 0.0 W/m2 CLR
05:24 -11.6 °C -12.6 °C 34659.1 hPa Calm     89 % 0 mm 0.0 W/m2 CLR
05:26 -11.6 °C -12.7 °C 34659.1 hPa Calm     88 % 0 mm 0.0 W/m2 CLR
05:32 -11.6 °C -12.7 °C 34659.1 hPa Calm     88 % 0 mm 0.0 W/m2 CLR
05:37 -11.6 °C -12.7 °C 34659.1 hPa Calm     88 % 0 mm 0.0 W/m2 CLR
05:42 -11.6 °C -12.6 °C 34659.1 hPa Calm     89 % 0 mm 0.0 W/m2 CLR
05:47 -11.6 °C -12.6 °C 34659.1 hPa Calm     89 % 0 mm 0.0 W/m2 CLR
05:52 -11.6 °C -12.6 °C 34659.1 hPa Calm     89 % 0 mm 0.0 W/m2 CLR
05:57 -11.6 °C -12.6 °C 34659.1 hPa Calm     89 % 0 mm 0.0 W/m2 CLR
06:02 -11.6 °C -12.6 °C 34659.1 hPa Calm     89 % 0 mm 0.0 W/m2 CLR
06:07 -11.6 °C -12.6 °C 34659.1 hPa Calm     89 % 0 mm 0.0 W/m2 CLR
06:12 -11.6 °C -12.6 °C 34659.1 hPa Calm     89 % 0 mm 0.0 W/m2 CLR
06:17 -11.6 °C -12.6 °C 34659.1 hPa Calm     89 % 0 mm 0.0 W/m2 CLR
06:22 -11.6 °C -12.6 °C 34659.1 hPa Calm     89 % 0 mm 0.0 W/m2 CLR
06:27 -11.6 °C -12.6 °C 34659.1 hPa Calm     89 % 0 mm 0.0 W/m2 CLR
06:32 -11.6 °C -12.6 °C 34659.1 hPa Calm     89 % 0 mm 0.0 W/m2 CLR
06:37 -11.6 °C -12.6 °C 34659.1 hPa Calm     89 % 0 mm 0.0 W/m2 CLR
06:42 -11.6 °C -12.6 °C 34659.1 hPa Calm     89 % 0 mm 0.0 W/m2 CLR
06:47 -11.6 °C -12.6 °C 34659.1 hPa Calm     89 % 0 mm 0.0 W/m2 CLR
06:52 -11.6 °C -12.6 °C 34659.1 hPa Calm     89 % 0 mm 0.0 W/m2 CLR
06:57 -11.6 °C -12.4 °C 34659.1 hPa Calm     90 % 0 mm 0.0 W/m2 CLR
07:02 -11.6 °C -12.4 °C 34659.1 hPa Calm     90 % 0 mm 0.0 W/m2 CLR
07:07 -11.6 °C -12.4 °C 34659.1 hPa Calm     90 % 0 mm 0.0 W/m2 CLR
07:12 -11.6 °C -12.4 °C 34659.1 hPa Calm     90 % 0 mm 0.0 W/m2 CLR
07:17 -11.6 °C -12.4 °C 34659.1 hPa Calm     90 % 0 mm 0.0 W/m2 CLR
07:22 -11.6 °C -12.4 °C 34659.1 hPa Calm     90 % 0 mm 0.0 W/m2 CLR
07:27 -11.6 °C -12.4 °C 34659.1 hPa Calm     90 % 0 mm 0.0 W/m2 CLR
07:33 -11.6 °C -12.6 °C 34659.1 hPa Calm     89 % 0 mm 0.0 W/m2 CLR
07:38 -11.6 °C -12.4 °C 34659.1 hPa Calm     90 % 0 mm 0.0 W/m2 CLR
07:43 -11.6 °C -12.4 °C 34659.1 hPa Calm     91 % 0 mm 0.0 W/m2 CLR
07:48 -11.6 °C -12.4 °C 34659.1 hPa Calm     91 % 0 mm 0.0 W/m2 OVC
07:53 -11.6 °C -12.4 °C 34659.1 hPa Calm     90 % 0 mm 0.0 W/m2 OVC
07:58 -11.6 °C -12.4 °C 34659.1 hPa Calm     91 % 0 mm 0.0 W/m2 OVC
08:03 -11.6 °C -12.4 °C 34669.3 hPa Calm     91 % 0 mm 5.0 W/m2 OVC
08:08 -11.6 °C -12.4 °C 34669.3 hPa Calm     91 % 0 mm 9.0 W/m2 BKN
08:13 -11.6 °C -12.4 °C 34669.3 hPa Calm     91 % 0 mm 11.0 W/m2 BKN
08:18 -11.6 °C -12.4 °C 34669.3 hPa Calm     91 % 0 mm 12.0 W/m2 BKN
08:23 -11.6 °C -12.4 °C 34669.3 hPa Calm     91 % 0 mm 14.0 W/m2 BKN
08:28 -11.6 °C -12.4 °C 34669.3 hPa Calm     91 % 0 mm 23.0 W/m2 BKN
08:33 -11.6 °C -12.4 °C 34669.3 hPa Calm     91 % 0 mm 33.0 W/m2 BKN
08:38 -11.6 °C -12.4 °C 34669.3 hPa Calm     90 % 0 mm 47.0 W/m2 SCT
08:43 -11.6 °C -12.4 °C 34669.3 hPa Calm     90 % 0 mm 49.0 W/m2 SCT
08:48 -11.6 °C -12.4 °C 34669.3 hPa Calm     90 % 0 mm 70.0 W/m2 FEW
08:53 -11.3 °C -12.4 °C 34669.3 hPa Calm     88 % 0 mm 81.0 W/m2 FEW
08:58 -11.3 °C -12.4 °C 34669.3 hPa Calm     88 % 0 mm 81.0 W/m2 FEW
09:03 -11 °C -12.2 °C 34669.3 hPa Calm     87 % 0 mm 77.0 W/m2 FEW
09:08 -10.7 °C -11.8 °C 34669.3 hPa Calm     87 % 0 mm 109.0 W/m2 CLR
09:13 -10.7 °C -11.9 °C 34669.3 hPa Calm     86 % 0 mm 79.0 W/m2 CLR
09:18 -10.7 °C -12.1 °C 34669.3 hPa Calm     84 % 0 mm 171.0 W/m2 CLR
09:23 -10.4 °C -11.8 °C 34669.3 hPa Calm     84 % 0 mm 188.0 W/m2 CLR
09:28 -10.4 °C -12.1 °C 34669.3 hPa Calm     82 % 0 mm 206.0 W/m2 CLR
09:33 -10.1 °C -11.8 °C 34682.8 hPa Calm     81 % 0 mm 221.0 W/m2 CLR
09:38 -9.8 °C -11.6 °C 34669.3 hPa Calm     80 % 0 mm 237.0 W/m2 CLR
09:43 -9.8 °C -11.8 °C 34669.3 hPa Calm     79 % 0 mm 253.0 W/m2 CLR
09:48 -9.4 °C -11.6 °C 34669.3 hPa Calm     78 % 0 mm 267.0 W/m2 CLR
09:53 -8.5 °C -11 °C 34669.3 hPa Calm     75 % 0 mm 285.0 W/m2 CLR
09:58 -8.2 °C -10.7 °C 34669.3 hPa Calm     75 % 0 mm 297.0 W/m2 CLR
10:03 -7.9 °C -10.5 °C 34669.3 hPa Calm     74 % 0 mm 315.0 W/m2 CLR
10:08 -7.6 °C -10.3 °C 34669.3 hPa Calm     73 % 0 mm 329.0 W/m2 CLR
10:13 -7.3 °C -10.2 °C 34669.3 hPa Calm     72 % 0 mm 343.0 W/m2 CLR
10:18 -7.3 °C -10.3 °C 34669.3 hPa SW 20.9 km/h 20.9 km/h 71 % 0 mm 357.0 W/m2 CLR
10:19 -7.3 °C -10.4 °C 34669.3 hPa SW 23.8 km/h 23.8 km/h 70 % 0 mm 359.0 W/m2 CLR
10:24 -7 °C -9.9 °C 34669.3 hPa SSW 15 km/h 15 km/h 71 % 0 mm 376.0 W/m2 CLR
10:29 -7 °C -10.1 °C 34669.3 hPa West 11.9 km/h 11.9 km/h 70 % 0 mm 388.0 W/m2 CLR
10:34 -7 °C -10.2 °C 34669.3 hPa WSW 32.8 km/h 32.8 km/h 69 % 0 mm 410.0 W/m2 CLR
10:39 -6.7 °C -9.9 °C 34669.3 hPa WSW 26.9 km/h 26.9 km/h 69 % 0 mm 418.0 W/m2 CLR
10:44 -6.3 °C -9.6 °C 34669.3 hPa South 26.9 km/h 26.9 km/h 69 % 0 mm 429.0 W/m2 CLR
10:49 -6.3 °C -9.6 °C 34669.3 hPa WSW 15 km/h 15 km/h 69 % 0 mm 443.0 W/m2 CLR
10:54 -6.3 °C -9.6 °C 34669.3 hPa WSW 23.8 km/h 23.8 km/h 69 % 0 mm 455.0 W/m2 CLR
10:59 -6.1 °C -9.3 °C 34669.3 hPa WSW 25.9 km/h 25.9 km/h 69 % 0 mm 466.0 W/m2 CLR
11:04 -6.1 °C -9.4 °C 34669.3 hPa SW 17.9 km/h 17.9 km/h 68 % 0 mm 476.0 W/m2 CLR
11:09 -6.1 °C -9.6 °C 34669.3 hPa SW 23.8 km/h 23.8 km/h 67 % 0 mm 492.0 W/m2 CLR
11:14 -6.1 °C -9.6 °C 34669.3 hPa WSW 23.8 km/h 23.8 km/h 67 % 0 mm 504.0 W/m2 CLR
11:15 -6.1 °C -9.4 °C 34669.3 hPa SW 23.8 km/h 23.8 km/h 68 % 0 mm 504.0 W/m2 CLR
11:20 -6.1 °C -9.6 °C 34669.3 hPa SW 32.8 km/h 32.8 km/h 67 % 0 mm 513.0 W/m2 CLR
11:25 -5.7 °C -9.3 °C 34669.3 hPa SW 20.9 km/h 20.9 km/h 67 % 0 mm 526.0 W/m2 CLR
11:30 -5.7 °C -9.3 °C 34669.3 hPa West 26.9 km/h 26.9 km/h 67 % 0 mm 536.0 W/m2 CLR
11:35 -5.7 °C -9.3 °C 34669.3 hPa West 26.9 km/h 26.9 km/h 67 % 0 mm 547.0 W/m2 CLR
11:40 -5.4 °C -9.1 °C 34669.3 hPa West 18.2 km/h 18.2 km/h 66 % 0 mm 561.0 W/m2 CLR
11:45 -5.4 °C -9.1 °C 34669.3 hPa West 23.8 km/h 23.8 km/h 66 % 0 mm 570.0 W/m2 CLR
11:50 -5.4 °C -9.1 °C 34669.3 hPa WSW 11.9 km/h 11.9 km/h 66 % 0 mm 578.0 W/m2 CLR
11:55 -5.1 °C -9 °C 34669.3 hPa WSW 23.8 km/h 23.8 km/h 65 % 0 mm 587.0 W/m2 CLR
12:00 -5.1 °C -9.1 °C 34669.3 hPa South 11.9 km/h 11.9 km/h 64 % 0 mm 599.0 W/m2 CLR
12:05 -5.1 °C -9.1 °C 34669.3 hPa SSW 18.2 km/h 18.2 km/h 64 % 0 mm 606.0 W/m2 CLR
12:10 -5.1 °C -9.2 °C 34669.3 hPa WSW 17.9 km/h 17.9 km/h 63 % 0 mm 612.0 W/m2 CLR
12:15 -4.8 °C -8.9 °C 34669.3 hPa SW 20.9 km/h 20.9 km/h 63 % 0 mm 621.0 W/m2 CLR
12:20 -4.8 °C -8.9 °C 34669.3 hPa WSW 20.9 km/h 20.9 km/h 63 % 0 mm 631.0 W/m2 CLR
12:25 -4.5 °C -8.7 °C 34669.3 hPa West 29.8 km/h 29.8 km/h 63 % 0 mm 633.0 W/m2 CLR
12:30 -4.8 °C -8.9 °C 34669.3 hPa WSW 23.8 km/h 23.8 km/h 63 % 0 mm 638.0 W/m2 CLR
12:35 -4.8 °C -8.9 °C 34659.1 hPa SW 26.9 km/h 26.9 km/h 63 % 0 mm 647.0 W/m2 CLR
12:40 -4.8 °C -9.1 °C 34659.1 hPa West 11.9 km/h   62 % 0 mm 650.0 W/m2 CLR
12:45 -4.8 °C -9.2 °C 34659.1 hPa West 32.8 km/h 32.8 km/h 61 % 0 mm 659.0 W/m2 CLR
12:50 -4.5 °C -8.9 °C 34659.1 hPa Calm     61 % 0 mm 663.0 W/m2 CLR
12:55 -4.5 °C -8.9 °C 34659.1 hPa WSW 29.8 km/h 29.8 km/h 61 % 0 mm 666.0 W/m2 CLR
13:00 -4.2 °C -8.7 °C 34659.1 hPa SSW 15.6 km/h 15.6 km/h 61 % 0 mm 671.0 W/m2 CLR
13:05 -4.2 °C -8.8 °C 34659.1 hPa South 23.8 km/h 23.8 km/h 60 % 0 mm 684.0 W/m2 CLR
13:10 -4.2 °C -8.8 °C 34659.1 hPa SSW 29.8 km/h 29.8 km/h 60 % 0 mm 682.0 W/m2 CLR
13:15 -4.2 °C -8.8 °C 34659.1 hPa SSW 18.2 km/h 18.2 km/h 60 % 0 mm 684.0 W/m2 CLR
13:20 -4.2 °C -8.8 °C 34659.1 hPa WNW 20.9 km/h 20.9 km/h 60 % 0 mm 686.0 W/m2 CLR
13:25 -4.2 °C -8.9 °C 34659.1 hPa West 6 km/h 6 km/h 59 % 0 mm 691.0 W/m2 CLR
13:30 -4.2 °C -8.9 °C 34645.6 hPa SSW 15 km/h 15 km/h 59 % 0 mm 696.0 W/m2 CLR
13:35 -4.2 °C -9.1 °C 34645.6 hPa West 23.3 km/h 23.3 km/h 58 % 0 mm 689.0 W/m2 CLR
13:40 -3.9 °C -8.9 °C 34645.6 hPa West 35.7 km/h 35.7 km/h 57 % 0 mm 696.0 W/m2 CLR
13:45 -3.9 °C -8.9 °C 34645.6 hPa SW 20.9 km/h 20.9 km/h 57 % 0 mm 689.0 W/m2 CLR
13:50 -3.9 °C -8.8 °C 34645.6 hPa SW 26.9 km/h 26.9 km/h 58 % 0 mm 689.0 W/m2 CLR
13:55 -4.2 °C -9.4 °C 34635.4 hPa WSW 33.6 km/h 33.6 km/h 56 % 0 mm 691.0 W/m2 CLR
14:00 -3.6 °C -9.1 °C 34635.4 hPa SSW 38.8 km/h 38.8 km/h 54 % 0 mm 691.0 W/m2 CLR
14:05 -3.6 °C -9 °C 34635.4 hPa SW 20.9 km/h 20.9 km/h 55 % 0 mm 689.0 W/m2 CLR
14:10 -3.9 °C -9.1 °C 34625.2 hPa West 15.6 km/h 15.6 km/h 56 % 0 mm 682.0 W/m2 CLR
14:15 -3.6 °C -9.1 °C 34635.4 hPa West 25.9 km/h 25.9 km/h 54 % 0 mm 684.0 W/m2 CLR
14:20 -3.9 °C -9.4 °C 34625.2 hPa WNW 23.8 km/h 23.8 km/h 54 % 0 mm 686.0 W/m2 CLR
14:25 -3.9 °C -9.4 °C 34625.2 hPa WSW 35.7 km/h 35.7 km/h 54 % 0 mm 682.0 W/m2 CLR
14:30 -3.9 °C -9.6 °C 34625.2 hPa West 35.7 km/h 35.7 km/h 53 % 0 mm 677.0 W/m2 CLR
14:31 -3.9 °C -9.6 °C 34625.2 hPa WSW 32.8 km/h 32.8 km/h 53 % 0 mm 677.0 W/m2 CLR
14:36 -3.6 °C -9 °C 34625.2 hPa West 23.8 km/h 23.8 km/h 55 % 0 mm 668.0 W/m2 CLR
14:41 -3.9 °C -9.6 °C 34611.7 hPa SSW 23.3 km/h 23.3 km/h 53 % 0 mm 666.0 W/m2 CLR
14:46 -3.6 °C -9.3 °C 34611.7 hPa SSE 20.9 km/h 20.9 km/h 53 % 0 mm 664.0 W/m2 CLR
14:51 -3.6 °C -9.1 °C 34611.7 hPa WSW 35.7 km/h 35.7 km/h 54 % 0 mm 663.0 W/m2 CLR
14:56 -3.6 °C -9.5 °C 34611.7 hPa SSW 17.9 km/h 17.9 km/h 52 % 0 mm 656.0 W/m2 CLR
15:01 -3.3 °C -9 °C 34601.5 hPa SSW 11.9 km/h 11.9 km/h 53 % 0 mm 650.0 W/m2 CLR
15:06 -3.6 °C -9.3 °C 34601.5 hPa SSW 20.8 km/h 20.8 km/h 53 % 0 mm 640.0 W/m2 CLR
15:11 -3.3 °C -9.2 °C 34601.5 hPa West 15 km/h 15 km/h 52 % 0 mm 638.0 W/m2 CLR
15:16 -3.3 °C -9.2 °C 34601.5 hPa Calm     52 % 0 mm 629.0 W/m2 CLR
15:21 -3.3 °C -9.3 °C 34601.5 hPa Calm     51 % 0 mm 624.0 W/m2 CLR
15:26 -3.3 °C -9.5 °C 34591.4 hPa SSW 32.8 km/h 32.8 km/h 50 % 0 mm 613.0 W/m2 CLR
15:31 -3.3 °C -9.5 °C 34591.4 hPa SW 12.9 km/h 12.9 km/h 50 % 0 mm 605.0 W/m2 CLR
15:36 -3.3 °C -9.5 °C 34591.4 hPa WNW 29.8 km/h 29.8 km/h 50 % 0 mm 596.0 W/m2 CLR
15:41 -3.3 °C -9.7 °C 34591.4 hPa NW 26.9 km/h 26.9 km/h 49 % 0 mm 592.0 W/m2 CLR
15:46 -3.3 °C -9.5 °C 34591.4 hPa West 20.9 km/h 20.9 km/h 50 % 0 mm 584.0 W/m2 CLR
15:51 -3.3 °C -9.5 °C 34591.4 hPa WSW 32.8 km/h 32.8 km/h 50 % 0 mm 575.0 W/m2 CLR
15:56 -2.9 °C -9.4 °C 34591.4 hPa WSW 26.9 km/h 26.9 km/h 49 % 0 mm 564.0 W/m2 CLR
16:01 -3.3 °C -9.7 °C 34591.4 hPa West 29.8 km/h 29.8 km/h 49 % 0 mm 554.0 W/m2 CLR
16:06 -2.9 °C -9.2 °C 34591.4 hPa WSW 35.7 km/h 35.7 km/h 50 % 0 mm 543.0 W/m2 CLR
16:11 -3.6 °C -9.9 °C 34591.4 hPa NW 29.8 km/h 29.8 km/h 49 % 0 mm 531.0 W/m2 CLR
16:16 -3.6 °C -9.9 °C 34577.8 hPa WNW 20.9 km/h 20.9 km/h 49 % 0 mm 524.0 W/m2 CLR
16:21 -3.6 °C -9.9 °C 34577.8 hPa NNW 20.9 km/h 20.9 km/h 49 % 0 mm 497.0 W/m2 CLR
16:26 -3.6 °C -9.9 °C 34577.8 hPa WNW 9 km/h 9 km/h 49 % 0 mm 503.0 W/m2 CLR
16:31 -3.6 °C -9.9 °C 34577.8 hPa WSW 12.9 km/h 12.9 km/h 49 % 0 mm 489.0 W/m2 CLR
16:36 -3.6 °C -10.2 °C 34577.8 hPa West 23.8 km/h 23.8 km/h 48 % 0 mm 476.0 W/m2 CLR
16:41 -3.6 °C -10.2 °C 34577.8 hPa West 15.6 km/h 15.6 km/h 48 % 0 mm 464.0 W/m2 CLR
16:46 -3.6 °C -10.3 °C 34577.8 hPa West 29.8 km/h 29.8 km/h 47 % 0 mm 450.0 W/m2 CLR
16:51 -3.6 °C -10.2 °C 34577.8 hPa SW 18.2 km/h 18.2 km/h 48 % 0 mm 443.0 W/m2 CLR
16:56 -3.3 °C -9.9 °C 34577.8 hPa WSW 28.5 km/h 28.5 km/h 48 % 0 mm 427.0 W/m2 CLR
17:01 -3.3 °C -10.1 °C 34577.8 hPa West 7.7 km/h 7.7 km/h 47 % 0 mm 415.0 W/m2 CLR
17:06 -3.3 °C -10.1 °C 34577.8 hPa SW 32.8 km/h 32.8 km/h 47 % 0 mm 403.0 W/m2 CLR
17:11 -2.9 °C -9.9 °C 34577.8 hPa NW 23.8 km/h 23.8 km/h 46 % 0 mm 387.0 W/m2 CLR
17:16 -3.3 °C -10.1 °C 34577.8 hPa West 20.9 km/h 20.9 km/h 47 % 0 mm 376.0 W/m2 CLR
17:21 -3.6 °C -10.3 °C 34577.8 hPa North 11.9 km/h 11.9 km/h 47 % 0 mm 360.0 W/m2 CLR
17:26 -3.6 °C -10.5 °C 34577.8 hPa West 23.8 km/h 23.8 km/h 46 % 0 mm 346.0 W/m2 CLR
17:31 -3.6 °C -10.5 °C 34591.4 hPa West 10.3 km/h 10.3 km/h 46 % 0 mm 329.0 W/m2 CLR
17:36 -3.6 °C -10.5 °C 34591.4 hPa WSW 20.9 km/h 20.9 km/h 46 % 0 mm 311.0 W/m2 CLR
17:41 -3.6 °C -10.5 °C 34591.4 hPa Calm     46 % 0 mm 301.0 W/m2 CLR
17:46 -3.6 °C -10.5 °C 34591.4 hPa WNW 20.9 km/h 20.9 km/h 46 % 0 mm 285.0 W/m2 CLR
17:51 -3.9 °C -10.8 °C 34591.4 hPa WNW 11.9 km/h 11.9 km/h 46 % 0 mm 267.0 W/m2 CLR
17:56 -3.9 °C -10.6 °C 34591.4 hPa West 26.9 km/h 26.9 km/h 47 % 0 mm 253.0 W/m2 CLR
18:01 -3.9 °C -10.4 °C 34591.4 hPa West 20.9 km/h 20.9 km/h 48 % 0 mm 239.0 W/m2 CLR
18:06 -3.9 °C -10.2 °C 34591.4 hPa WNW 6 km/h   49 % 0 mm 221.0 W/m2 CLR
18:11 -3.9 °C -10.2 °C 34591.4 hPa West 20.8 km/h 20.8 km/h 49 % 0 mm 202.0 W/m2 CLR
18:16 -4.2 °C -10.5 °C 34591.4 hPa West 15 km/h 15 km/h 49 % 0 mm 181.0 W/m2 CLR
18:21 -4.2 °C -10.5 °C 34591.4 hPa Calm     49 % 0 mm 165.0 W/m2 CLR
18:22 -4.2 °C -10.5 °C 34591.4 hPa Calm     49 % 0 mm 160.0 W/m2 CLR
18:27 -4.2 °C -10.4 °C 34591.4 hPa Calm   0.3 km/h 50 % 0 mm 142.0 W/m2 CLR
18:32 -4.2 °C -10.4 °C 34591.4 hPa NW 9 km/h   50 % 0 mm 128.0 W/m2 CLR
18:37 -4.2 °C -10.4 °C 34591.4 hPa Calm     50 % 0 mm 113.0 W/m2 CLR
18:42 -4.5 °C -10.8 °C 34591.4 hPa Calm     49 % 0 mm 93.0 W/m2 CLR
18:47 -4.5 °C -10.8 °C 34591.4 hPa Calm     49 % 0 mm 79.0 W/m2 FEW
18:52 -4.8 °C -10.9 °C 34591.4 hPa Calm     50 % 0 mm 60.0 W/m2 SCT
18:57 -5.1 °C -11.2 °C 34591.4 hPa Calm     50 % 0 mm 51.0 W/m2 SCT
19:02 -5.4 °C -11.5 °C 34591.4 hPa Calm     50 % 0 mm 39.0 W/m2 BKN
19:07 -5.7 °C -11.8 °C 34591.4 hPa Calm     50 % 0 mm 28.0 W/m2 BKN
19:12 -5.7 °C -11.6 °C 34591.4 hPa Calm     51 % 0 mm 21.0 W/m2 BKN
19:17 -6.1 °C -11.9 °C 34591.4 hPa Calm     51 % 0 mm 14.0 W/m2 BKN
19:22 -6.3 °C -12.1 °C 34591.4 hPa Calm     52 % 0 mm 12.0 W/m2 BKN
19:27 -6.7 °C -12.2 °C 34591.4 hPa Calm     53 % 0 mm 9.0 W/m2 BKN
19:33 -7 °C -12.4 °C 34591.4 hPa Calm     53 % 0 mm 7.0 W/m2 BKN
19:38 -7.3 °C -12.6 °C 34591.4 hPa Calm     54 % 0 mm 0.0 W/m2 OVC
19:43 -7.3 °C -12.6 °C 34601.5 hPa Calm     54 % 0 mm 0.0 W/m2 OVC
19:48 -7.6 °C -12.7 °C 34591.4 hPa Calm     55 % 0 mm 0.0 W/m2 OVC
19:53 -7.6 °C -12.7 °C 34601.5 hPa Calm     55 % 0 mm 0.0 W/m2 CLR
19:58 -7.6 °C -12.6 °C 34601.5 hPa Calm     56 % 0 mm 0.0 W/m2 CLR
20:03 -7.9 °C -12.7 °C 34601.5 hPa Calm     57 % 0 mm 0.0 W/m2 CLR
20:08 -7.9 °C -12.7 °C 34601.5 hPa Calm     57 % 0 mm 0.0 W/m2 CLR
20:13 -8.2 °C -13 °C 34601.5 hPa Calm     57 % 0 mm 0.0 W/m2 CLR
20:18 -8.2 °C -12.8 °C 34601.5 hPa Calm     58 % 0 mm 0.0 W/m2 CLR
20:23 -8.2 °C -12.7 °C 34601.5 hPa Calm     59 % 0 mm 0.0 W/m2 CLR
20:28 -8.5 °C -13 °C 34601.5 hPa Calm     59 % 0 mm 0.0 W/m2 CLR
20:33 -8.5 °C -12.8 °C 34611.7 hPa Calm     60 % 0 mm 0.0 W/m2 CLR
20:38 -8.5 °C -12.7 °C 34611.7 hPa Calm     61 % 0 mm 0.0 W/m2 CLR
20:43 -8.5 °C -12.6 °C 34611.7 hPa Calm     62 % 0 mm 0.0 W/m2 CLR
20:48 -8.5 °C -12.4 °C 34611.7 hPa Calm     63 % 0 mm 0.0 W/m2 CLR
20:53 -8.5 °C -12.3 °C 34625.2 hPa Calm     64 % 0 mm 0.0 W/m2 CLR
20:58 -8.5 °C -12.2 °C 34625.2 hPa Calm     65 % 0 mm 0.0 W/m2 CLR
21:03 -8.8 °C -12.5 °C 34625.2 hPa Calm     65 % 0 mm 0.0 W/m2 CLR
21:08 -8.8 °C -12.5 °C 34625.2 hPa Calm     65 % 0 mm 0.0 W/m2 CLR
21:13 -8.8 °C -12.5 °C 34625.2 hPa Calm     65 % 0 mm 0.0 W/m2 CLR
21:18 -9.1 °C -12.7 °C 34635.4 hPa Calm     66 % 0 mm 0.0 W/m2 CLR
21:23 -9.1 °C -12.6 °C 34635.4 hPa Calm     67 % 0 mm 0.0 W/m2 CLR
21:28 -9.1 °C -12.4 °C 34635.4 hPa Calm     68 % 0 mm 0.0 W/m2 CLR
21:33 -9.1 °C -12.3 °C 34635.4 hPa Calm     69 % 0 mm 0.0 W/m2 CLR
21:38 -9.1 °C -12.3 °C 34635.4 hPa Calm     69 % 0 mm 0.0 W/m2 CLR
21:43 -9.4 °C -12.6 °C 34635.4 hPa Calm     69 % 0 mm 0.0 W/m2 CLR
21:48 -9.4 °C -12.6 °C 34635.4 hPa Calm     69 % 0 mm 0.0 W/m2 CLR
21:53 -9.4 °C -12.6 °C 34645.6 hPa Calm     69 % 0 mm 0.0 W/m2 CLR
21:58 -9.8 °C -12.7 °C 34645.6 hPa Calm     70 % 0 mm 0.0 W/m2 CLR
22:03 -9.8 °C -12.7 °C 34645.6 hPa Calm     70 % 0 mm 0.0 W/m2 CLR
22:08 -9.8 °C -12.7 °C 34645.6 hPa Calm     71 % 0 mm 0.0 W/m2 CLR
22:13 -10.1 °C -12.9 °C 34645.6 hPa Calm     71 % 0 mm 0.0 W/m2 CLR
22:18 -10.1 °C -12.9 °C 34659.1 hPa Calm     71 % 0 mm 0.0 W/m2 CLR
22:23 -10.1 °C -12.8 °C 34659.1 hPa Calm     72 % 0 mm 0.0 W/m2 CLR
22:28 -10.1 °C -12.8 °C 34659.1 hPa Calm     72 % 0 mm 0.0 W/m2 CLR
22:33 -10.1 °C -12.7 °C 34659.1 hPa Calm     73 % 0 mm 0.0 W/m2 CLR
22:38 -10.4 °C -13 °C 34659.1 hPa Calm     73 % 0 mm 0.0 W/m2 CLR
22:43 -10.4 °C -13 °C 34669.3 hPa Calm     73 % 0 mm 0.0 W/m2 CLR
22:48 -10.4 °C -13 °C 34669.3 hPa Calm     73 % 0 mm 0.0 W/m2 CLR
22:53 -10.4 °C -12.9 °C 34669.3 hPa Calm     74 % 0 mm 0.0 W/m2 CLR
22:58 -10.4 °C -12.9 °C 34669.3 hPa Calm     74 % 0 mm 0.0 W/m2 CLR
23:03 -10.4 °C -12.9 °C 34669.3 hPa Calm     74 % 0 mm 0.0 W/m2 CLR
23:08 -10.1 °C -12.6 °C 34669.3 hPa Calm     74 % 0 mm 0.0 W/m2 CLR
23:13 -10.4 °C -12.9 °C 34682.8 hPa Calm     74 % 0 mm 0.0 W/m2 CLR
23:18 -10.4 °C -12.9 °C 34682.8 hPa Calm     74 % 0 mm 0.0 W/m2 CLR
23:23 -10.4 °C -12.9 °C 34682.8 hPa Calm     74 % 0 mm 0.0 W/m2 CLR
23:28 -10.4 °C -12.9 °C 34682.8 hPa Calm     74 % 0 mm 0.0 W/m2 CLR
23:33 -10.4 °C -12.8 °C 34682.8 hPa Calm     75 % 0 mm 0.0 W/m2 CLR
23:38 -10.1 °C -12.4 °C 34682.8 hPa Calm     75 % 0 mm 0.0 W/m2 CLR
23:43 -10.4 °C -12.7 °C 34682.8 hPa Calm     76 % 0 mm 0.0 W/m2 CLR
23:48 -10.4 °C -12.6 °C 34693 hPa Calm     77 % 0 mm 0.0 W/m2 CLR
23:53 -10.1 °C -12.4 °C 34693 hPa Calm     76 % 0 mm 0.0 W/m2 CLR
23:58 -10.1 °C -12.3 °C 34693 hPa Calm     77 % 0 mm 0.0 W/m2 CLR
Lo Temps de Massalio
Compliments of Weather Underground - 1.25 mb